User: anonymous   Login
Location: Harwich
(41.7160°N, 69.9939°W)
Time: 09:20:00
(UTC+01:00)
Language:

Tiros 1 despin weight - Orbit

View from above orbital plane
View from above orbital plane
View from above satellite
View from above satellite

Ground track
Ground track

The orbit data is extracted from the following two-line orbital elements,

1 00115U 60002D   23344.14889281  .00002007  00000-0  24085-3 0  9993
2 00115  48.1643 273.6186 0031997  99.8115 260.6414 14.87729354380622
Epoch (UTC): 10 December 2023 03:34:24
Eccentricity: 0.0031997
inclination: 48.1643°
perigee height: 582 km
apogee height: 627 km
right ascension of ascending node: 273.6186°
argument of perigee: 99.8115°
revolutions per day: 14.87729354
mean anomaly at epoch: 260.6414°
orbit number at epoch: 38062

The dashed part of the orbit path shows where the satellite is in the earth's shadow,  

DLR